Regional Weather Roundup
Issued by NWS

Home | Current Version | Previous Version | Text Only | Print | Product List | Glossary Off
Versions: 1 2 3 4 5 6 7 8 9 10 11 12 13 14 15 16 17 18 19 20 21 22 23 24 25 26 27 28 29 30 31 32 33 34 35 36 37 38 39 40 41 42 43 44 45 46 47 48 49 50

000
ASUS43 KMKX 231411
RWRWI

WISCONSIN REGIONAL WEATHER ROUNDUP
NATIONAL WEATHER SERVICE MILWAUKEE/SULLIVAN WI
900 AM CDT TUE MAY 23 2017

NOTE: "FAIR" INDICATES FEW OR NO CLOUDS BELOW 12,000 FEET WITH NO
SIGNIFICANT WEATHER AND/OR OBSTRUCTIONS TO VISIBILITY.

WIZ001-002-006>008-014>016-023>028-231500-
NORTHWEST WISCONSIN

CITY           SKY/WX    TMP DP  RH WIND       PRES   REMARKS
SUPERIOR ARPT  NOT AVBL
ASHLAND        CLOUDY    50  45  83 CALM      29.87R
HAYWARD        LGT RAIN  49  46  90 N3        29.85R
SIREN          CLOUDY    49  47  93 CALM      29.85R
CUMBERLAND     LGT RAIN  48  45  87 N5        29.83R
RICE LAKE      CLOUDY    51  48  90 NE7       29.84R
CHETEK         CLOUDY    50  49  95 CALM      29.83R
LADYSMITH      CLOUDY    51  47  89 NE6       29.85R
EAU CLAIRE     LGT RAIN  50  48  93 NE8       29.81R
MENOMONIE      CLOUDY    51  48  90 N5        29.82R
NEW RICHMOND   CLOUDY    51  46  86 NE6       29.83R
OSCEOLA        CLOUDY    50  50 100 N3        29.86R
$$

WIZ003>005-009-010-017-018-231500-
NORTH CENTRAL WISCONSIN

CITY           SKY/WX    TMP DP  RH WIND       PRES   REMARKS
MANITOWISH WTR CLOUDY    46  46 100 SE3       29.85S
ARBOR VITAE    LGT RAIN  47  46  95 CALM      29.85R
WOODRUFF       LGT RAIN  47  46  95 CALM      29.85R
RHINELANDER    CLOUDY    48  46  93 NE3       29.86R
EAGLE RIVER    RAIN      47  47 100 CALM      29.85S
LAND O LAKES   RAIN      46  46 100 CALM      29.88R
PHILLIPS       CLOUDY    46  46  97 E3        29.84R
TOMAHAWK       RAIN      46  45  97 CALM      29.85R
MEDFORD        DRIZZLE   47  46  95 E8        29.82S
MERRILL        CLOUDY    47  47 100 NE6       29.83S
$$

WIZ029-030-035-036-043>047-231500-
CENTRAL WISCONSIN

CITY           SKY/WX    TMP DP  RH WIND       PRES   REMARKS
WAUSAU         CLOUDY    50  46  86 NE5       29.80S
MOSINEE        CLOUDY    50  48  93 N8        29.82R
MARSHFIELD     CLOUDY    50  45  83 NE8       29.78S
STEVENS POINT  CLOUDY    51  44  78 E7        29.79S
WAUPACA        CLOUDY    56  48  73 E7        29.79S
WAUTOMA        CLOUDY    55  53  93 NE6       29.77F
WISC RAPIDS    CLOUDY    53  48  83 E6        29.79S
CAMP DOUGLAS   CLOUDY    54  54 100 NW6       29.77S
$$

WIZ011>013-019>022-031-037>040-048>050-231500-
NORTHEAST WISCONSIN

CITY           SKY/WX    TMP DP  RH WIND       PRES   REMARKS
ANTIGO         CLOUDY    48  44  87 E8        29.83R
SHAWANO        CLOUDY    52  47  83 NE6       29.82S
OCONTO         CLOUDY    50  47  88 NE6       29.82S
STURGEON BAY   CLOUDY    51  45  79 N9        29.83S
GREEN BAY      CLOUDY    55  48  77 NE10      29.80S
MANITOWOC      CLOUDY    52  48  86 VRB3      29.80S
APPLETON       CLOUDY    55  45  67 E8        29.78S
CLINTONVILLE   CLOUDY    52  45  76 NE5       29.80S
OSHKOSH        CLOUDY    57  54  89 SW3       29.77S FOG
$$

WIZ032>034-041-042-053>061-231500-
SOUTHWEST WISCONSIN

CITY           SKY/WX    TMP DP  RH WIND       PRES   REMARKS
LA CROSSE      CLOUDY    55  53  93 N9        29.77S
SPARTA         CLOUDY    51  51 100 NE5       29.78S
VIROQUA        CLOUDY    53  52  95 MISG      29.77S
BOSCOBEL       CLOUDY    55  53  93 SW5       29.77S
PRAIRIE DU CHI CLOUDY    55  52  89 SW5       29.77S
PLATTEVILLE    CLOUDY    54  54 100 SW7       29.78S
$$

WIZ056-057-062-063-064-067-068-231500-
SOUTH CENTRAL WISCONSIN

CITY           SKY/WX    TMP DP  RH WIND       PRES   REMARKS
REEDSBURG      PTSUNNY   56  56  98 SE3       29.75F
BARABOO/DELLS  CLOUDY    55  53  94 CALM      29.76S
LONE ROCK      CLOUDY    56  53  90 W3        29.76S FOG
MINERAL POINT  CLOUDY    55  55 100 W7        29.77S
MADISON        CLOUDY    56  53  90 SW5       29.76S
MIDDLETON      CLOUDY    58  55  87 W6        29.77S
WATERTOWN      CLOUDY    58  56  95 S5        29.77S
MONROE         CLOUDY    55  52  88 SW9       29.78S
JANESVILLE     CLOUDY    57  55  94 SW12      29.77F
$$

WIZ051-052-058>065-066-070>072-231500-
SOUTHEAST WISCONSIN

CITY           SKY/WX    TMP DP  RH WIND       PRES   REMARKS
MILWAUKEE      CLOUDY    63  54  72 SW8       29.79S
WAUKESHA       CLOUDY    57  54  88 SW5       29.80S
MILWAUKEE/TIMM PTSUNNY   59  52  77 SW3       29.79S
RACINE         CLOUDY    62  54  74 W6        29.80S
KENOSHA        CLOUDY    60  53  77 SW9       29.79S
FOND DU LAC    CLOUDY    58  53  84 S5        29.78S
SHEBOYGAN      CLOUDY    57  54  89 E5        29.78S
WEST BEND      CLOUDY    59  55  88 SW6       29.78S
JUNEAU         CLOUDY    57  54  89 CALM      29.78F
$$

LSZ147-162-231500-
LAKE SUPERIOR

STATION/POSITION TIME  TEMP    WIND        PRES    WAVE
                       AIR SEA DIR/SP/G            HT/PER
                 (UTC) (F)     (DEG/KT/KT) (MB)    (FT/S)
W MID LAKE BUOY  1350   40 37   40/  8/  8 1012.3R   0
DEVILS ISLAND    1400   44      70/  6/  8 1012.3R
PORT WING        1340   44     360/  9/  9 1011.5R
SAXON HARBOR     1340   46     340/  2/  2 1011.2R
$$

LMZ867-665-643>646-231500-
LAKE MICHIGAN

STATION/POSITION TIME  TEMP    WIND        PRES    WAVE
                       AIR SEA DIR/SP/G            HT/PER
                 (UTC) (F)     (DEG/KT/KT) (MB)    (FT/S)
CHAMBERS ISLAND  1330   47     350/  6/  7 1010.5R
N MID LAKE BUOY  1350   40 39   50/  6/  8 1011.6F   1/ 5
NORTHPORT PIER   1340   46     100/  4/  6 1010.5S
SISTER BAY       1206   48        CALM       N/A
ALGOMA LAKESHORE 1215           60/  8/ 10   N/A
KEWAUNEE LAKESHO 1348   47      30/  7/  9 1009.0S
SHEBOYGAN LAKESH 1400   46      10/  9/  9 1008.7S
PORT WASHINGTON  1340   54      CALM  /  2 1009.5S
ATWATER BUOY     1309   49     160/  4/  4 1008.8R
MILWAUKEE LAKESH 1350   55      40/  1/  2   N/A
S MID LAKE BUOY  1350   47 45  150/  8/  8 1009.7F   1
KENOSHA   LAKESH 1400   60     250/  9/ 12 1009.1
$$

TC  - TEMPERATURE IN CELSIUS
VSB - VISIBILITY IN STATUTE MILES
WCI - WIND CHILL INDEX
HX  - HEAT INDEX





USA.gov is the U.S. government's official web portal to all federal, state and local government web resources and services.